Location: Emblem
(62.4273°N, 6.4710°E)
Time: 06:50:35
(UTC+01:00)

Vanguard 3 - Visible Passes

Search period start: 30 January 2023 00:00
Search period end: 09 February 2023 00:00
Orbit: 509 x 3252 km, 33.4° (Epoch: 29 January)

Date Brightness Start Highest point End Pass type
(mag) Time Alt. Az. Time Alt. Az. Time Alt. Az.
30 Jan 10.7 20:58:50 10° SSW 21:04:55 17° SSE 21:04:55 17° SSE visible
30 Jan 11.0 23:07:35 10° SW 23:09:22 13° SW 23:09:22 13° SW visible
31 Jan 10.7 19:47:09 10° SSE 19:52:06 13° SE 19:53:49 12° SE visible
31 Jan 10.7 21:53:12 10° SSW 21:58:16 18° S 21:58:16 18° S visible
01 Feb 10.6 20:39:51 10° SSW 20:47:08 17° SSE 20:47:08 17° SSE visible
01 Feb 10.8 22:48:35 10° SW 22:51:35 15° SSW 22:51:35 15° SSW visible
02 Feb 10.7 19:28:25 10° SSE 19:32:20 12° SSE 19:36:00 11° SE visible
02 Feb 10.6 21:34:19 10° SSW 21:40:26 18° S 21:40:26 18° S visible
03 Feb 10.6 20:21:05 10° S 20:27:23 15° SSE 20:29:16 15° SSE visible
03 Feb 10.7 22:29:50 10° SW 22:33:43 16° SSW 22:33:43 16° SSW visible
04 Feb 10.7 19:10:16 10° SSE 19:12:39 11° SSE 19:15:14 10° SE visible
04 Feb 10.6 21:15:39 10° SSW 21:22:32 17° S 21:22:32 17° S visible
04 Feb 11.0 23:26:33 10° SW 23:26:58 11° SW 23:26:58 11° SW visible
05 Feb 10.6 20:02:36 10° S 20:07:43 14° SSE 20:11:21 12° SE visible
05 Feb 10.7 22:11:20 10° SW 22:15:48 15° SSW 22:15:48 15° SSW visible
06 Feb 10.6 20:57:15 10° SSW 21:03:04 15° S 21:04:37 15° SSE visible
06 Feb 10.9 23:08:39 10° SW 23:09:04 10° SW 23:09:04 10° SW visible
07 Feb 10.6 19:44:30 10° S 19:48:10 12° SSE 19:52:24 10° SE visible
07 Feb 10.7 21:53:16 10° SSW 21:57:54 14° S 21:57:54 14° S visible
08 Feb 10.6 20:39:16 10° SSW 20:43:29 13° S 20:46:44 11° SSE visible
